[[{"header":{"parameterUnit":"m.s-1","parameterCategory":1,"la1":30.2991,"la2":30.254,"lo1":-89.0895,"lo2":-89.0444,"dy":0.0017,"dx":0.0017,"nx":28,"ny":28,"refTime":"2023-10-06T21:00:00:Z","depth":0,"parameterNumber":2,"parameterNumberName":"U-component_of_WINDS"},"data":[0,0,0,0,0,0,0,0,0,0,0,0,0,0,0,0,0,0,0,0,0,0,0,0,0,0,0,0,0,0,0,0,0,0,0,0,0,0,0,0,0,0,0,0,0,0,0,0,0,0,0,0,0,0,0,0,0,0,0.1034,0.1035,0,0.1064,0.1065,0.1065,0.1087,0.1087,0.1088,0.1088,0.112,0.112,0.1121,0,0,0,0,0,0,0,0,0,0,0,0,0,0.0997,0.0998,0.1034,0.1035,0.1035,0.1064,0.1065,0.1065,0.1087,0.1087,0.1088,0.1088,0.1119,0.112,0.1121,0,0,0,0,0,0,0,0,0,0,0,0,0,0.1019,0.0998,0.1034,0.1049,0.1051,0.1064,0.1065,0.1065,0.1087,0.1087,0.1088,0.1088,0.1119,0.112,0.1121,0.1122,0,0,0.1124,0.1125,0,0,0,0,0,0,0,0,0.1018,0.102,0.1047,0.1048,0.105,0.1072,0.1063,0.1084,0.1087,0.1073,0.1088,0.1088,0.1104,0.1106,0.1111,0.1123,0.1124,0.1124,0.1125,0.1125,0.1126,0,0,0,0,0,0,0,0.1016,0.1019,0.1046,0.1047,0.1049,0.1055,0.1059,0.1067,0.1087,0.1075,0.1076,0.108,0.1105,0.111,0.1112,0.1125,0.1124,0.1125,0.1126,0.1126,0.114,0.114,0,0,0,0,0,0,0.1012,0.1018,0.1045,0.1047,0.1034,0.1056,0.106,0.1065,0.1087,0.109,0.1079,0.108,0.1108,0.1111,0.1113,0.1115,0.1125,0.1126,0.1127,0.114,0.114,0.1139,0,0,0,0,0,0,0.1011,0.1014,0.1044,0.1033,0.1037,0.1056,0.1062,0.1065,0.1071,0.109,0.1094,0.1081,0.1108,0.1112,0.1119,0.1117,0.1127,0.1128,0.114,0.114,0.114,0.112,0,0,0,0,0,0,0.101,0.1014,0.1014,0.1033,0.1038,0.1049,0.1062,0.1066,0.1072,0.1074,0.1093,0.1096,0.1109,0.1118,0.112,0.1118,0.1128,0.1141,0.114,0.114,0.1121,0.1119,0.1117,0,0,0,0,0,0.1009,0.1007,0.1014,0.1017,0.1038,0.1049,0.1052,0.1066,0.1072,0.1072,0.1085,0.1095,0.1117,0.1118,0.1122,0.112,0.1141,0.114,0.114,0.1121,0.1119,0.1117,0,0,0,0,0,0,0.0988,0.101,0.1017,0.1022,0.1033,0.1053,0.1053,0.1063,0.1074,0.1075,0.1093,0.1097,0.1103,0.1112,0.1114,0.1122,0.113,0.113,0.1115,0.1113,0.1111,0.1109,0.1129,0,0,0,0,0,0.0984,0.099,0.101,0.1012,0.1017,0.1034,0.104,0.105,0.1063,0.1068,0.1081,0.1093,0.1103,0.1109,0.1118,0.1122,0.1127,0.1123,0.1121,0.1119,0.1119,0.1122,0.1121,0.1138,0.1138,0.1138,0,0,0.0975,0.0988,0.0991,0.1008,0.1018,0.1025,0.1038,0.1045,0.105,0.1069,0.1077,0.1087,0.1102,0.1108,0.1111,0.1116,0.1116,0.1119,0.1117,0.1118,0.1122,0.112,0.1118,0.1137,0.1137,0.1137,0,0,0.0963,0.0973,0.0976,0.0986,0.1001,0.1013,0.1014,0.1032,0.1039,0.1048,0.1062,0.1069,0.1085,0.1095,0.1102,0.1095,0.1105,0.1098,0.1088,0.1091,0.109,0.1089,0.1086,0.1085,0.1098,0.1098,0.1098,0,0.095,0.0961,0.0977,0.0983,0.099,0.1007,0.101,0.1019,0.1037,0.1042,0.1047,0.1068,0.1079,0.1088,0.1086,0.1091,0.1093,0.1096,0.1089,0.1088,0.1087,0.1085,0.1084,0.1097,0.1097,0.1097,0.1097,0,0.0945,0.0952,0.0953,0.0969,0.0977,0.0981,0.0998,0.1004,0.1014,0.1025,0.1034,0.1048,0.1061,0.1064,0.1074,0.1075,0.1077,0.1085,0.1094,0.1084,0.1082,0.1081,0.1095,0.1096,0.1096,0.1096,0,0,0.0919,0.0945,0.0945,0.0953,0.0971,0.0977,0.0983,0.0996,0.1,0.1013,0.1018,0.1032,0.1039,0.1048,0.1059,0.1062,0.1055,0.107,0.107,0.1066,0.1057,0.105,0.1049,0.1062,0.1062,0.1062,0.1055,0,0.091,0.0921,0.0935,0.0941,0.0949,0.0965,0.0971,0.0983,0.0994,0.1002,0.1015,0.1024,0.1033,0.1039,0.1042,0.1055,0.1053,0.1056,0.1068,0.1068,0.1063,0.1048,0.104,0.1033,0.1055,0.1055,0.1055,0,0.09,0.0911,0.0917,0.0936,0.0939,0.0943,0.0957,0.0964,0.0979,0.0987,0.0996,0.1009,0.1016,0.1025,0.1036,0.1037,0.1043,0.105,0.105,0.1052,0.106,0.1048,0.1031,0.103,0.1054,0.1054,0.1054,0,0.088,0.0897,0.0903,0.0909,0.0931,0.0933,0.0943,0.0957,0.0964,0.0976,0.0981,0.0994,0.1,0.101,0.1026,0.103,0.1035,0.1045,0.1042,0.1042,0.1042,0.1041,0.1025,0.1046,0.1046,0.1047,0.1047,0,0.0868,0.0871,0.0894,0.0898,0.0903,0.092,0.0924,0.0935,0.0948,0.0955,0.0971,0.0977,0.0997,0.1006,0.1018,0.1026,0.1029,0.1036,0.1039,0.1034,0.1033,0.1037,0.1038,0.1046,0.1046,0.1046,0.1046,0,0.0846,0.0862,0.087,0.089,0.0895,0.0897,0.0915,0.0919,0.0932,0.094,0.0943,0.0962,0.0973,0.099,0.1006,0.1014,0.1019,0.1025,0.1014,0.1016,0.1012,0.1012,0.0998,0.0997,0.1019,0.1019,0.1019,0,0.0837,0.084,0.086,0.0865,0.0874,0.0882,0.089,0.0907,0.0914,0.0931,0.0934,0.0946,0.0957,0.0974,0.0989,0.1002,0.1008,0.1002,0.101,0.1005,0.1007,0.1007,0.1007,0.1,0.0999,0.0999,0.0999,0,0.0818,0.0826,0.0836,0.0848,0.0856,0.0867,0.0878,0.0882,0.0902,0.0909,0.092,0.0929,0.0945,0.0957,0.0972,0.0982,0.0994,0.0997,0.0997,0.0991,0.0985,0.0988,0.1009,0.0997,0.0997,0.0997,0.0997,0.0997,0.0802,0.0806,0.0821,0.0831,0.0841,0.0852,0.0857,0.087,0.088,0.0894,0.0905,0.0915,0.0931,0.0952,0.0962,0.0971,0.0976,0.0976,0.0976,0.0975,0.0973,0.0984,0.0973,0.0974,0.0974,0.0974,0.0974,0,0.0784,0.0795,0.0804,0.082,0.0828,0.0838,0.0852,0.0858,0.0867,0.088,0.0891,0.0904,0.0916,0.0933,0.0946,0.095,0.0956,0.0953,0.0952,0.0955,0.0968,0.0966,0.0948,0.0948,0.0948,0.0948,0.0948,0.0948,0.0776,0.0782,0.0792,0.0804,0.0815,0.0825,0.0832,0.0842,0.0853,0.0867,0.0876,0.0888,0.0903,0.0917,0.0929,0.0934,0.0938,0.0933,0.0939,0.0951,0.0954,0.0956,0.0954,0.0934,0.0934,0.0925,0.0925,0.0925]},{"header":{"parameterUnit":"m.s-1","parameterCategory":1,"la1":30.2991,"la2":30.254,"lo1":-89.0895,"lo2":-89.0444,"dy":0.0017,"dx":0.0017,"nx":28,"ny":28,"refTime":"2023-10-06T21:00:00:Z","depth":0,"parameterNumber":3,"parameterNumberName":"V-component_of_WINDS"},"data":[0,0,0,0,0,0,0,0,0,0,0,0,0,0,0,0,0,0,0,0,0,0,0,0,0,0,0,0,0,0,0,0,0,0,0,0,0,0,0,0,0,0,0,0,0,0,0,0,0,0,0,0,0,0,0,0,0,0,-2.129,-2.129,0,-2.1348,-2.1349,-2.135,-2.1379,-2.1379,-2.1379,-2.1379,-2.1437,-2.1439,-2.144,0,0,0,0,0,0,0,0,0,0,0,0,0,-2.1203,-2.1205,-2.129,-2.1291,-2.1291,-2.1348,-2.1349,-2.135,-2.1379,-2.1379,-2.1379,-2.1379,-2.1437,-2.1438,-2.144,0,0,0,0,0,0,0,0,0,0,0,0,0,-2.1249,-2.1205,-2.129,-2.1313,-2.1315,-2.1348,-2.1349,-2.135,-2.1379,-2.1379,-2.1379,-2.1379,-2.1436,-2.1438,-2.1441,-2.1455,0,0,-2.1448,-2.1449,0,0,0,0,0,0,0,0,-2.1247,-2.1252,-2.1308,-2.1311,-2.1314,-2.1356,-2.134,-2.1385,-2.1379,-2.1354,-2.1379,-2.1379,-2.141,-2.1415,-2.1425,-2.1457,-2.146,-2.1448,-2.1449,-2.145,-2.1451,0,0,0,0,0,0,0,-2.1243,-2.125,-2.1313,-2.1309,-2.1313,-2.132,-2.1327,-2.1349,-2.1381,-2.1357,-2.1359,-2.1365,-2.1412,-2.1423,-2.1427,-2.1461,-2.1448,-2.145,-2.1451,-2.1452,-2.151,-2.1511,0,0,0,0,0,0,-2.1237,-2.1247,-2.1311,-2.1315,-2.128,-2.1322,-2.1329,-2.1343,-2.1381,-2.1387,-2.1365,-2.1367,-2.1419,-2.1424,-2.1429,-2.145,-2.145,-2.1452,-2.1454,-2.151,-2.151,-2.1511,0,0,0,0,0,0,-2.1235,-2.1242,-2.1309,-2.1282,-2.1291,-2.1323,-2.1338,-2.1344,-2.1355,-2.1388,-2.1394,-2.1371,-2.1419,-2.1426,-2.1449,-2.1453,-2.1453,-2.1456,-2.151,-2.151,-2.151,-2.1492,0,0,0,0,0,0,-2.1232,-2.1241,-2.1246,-2.1282,-2.1292,-2.1327,-2.1338,-2.1345,-2.136,-2.1362,-2.1395,-2.14,-2.142,-2.1445,-2.1451,-2.1456,-2.1457,-2.151,-2.151,-2.151,-2.1492,-2.1491,-2.149,0,0,0,0,0,-2.1229,-2.1238,-2.1247,-2.1254,-2.13,-2.1327,-2.1333,-2.1356,-2.136,-2.1366,-2.1387,-2.1399,-2.1451,-2.1447,-2.1454,-2.146,-2.151,-2.151,-2.151,-2.1492,-2.1491,-2.149,0,0,0,0,0,0,-2.1201,-2.1243,-2.1253,-2.1274,-2.1297,-2.1332,-2.134,-2.1354,-2.1376,-2.1377,-2.1403,-2.1411,-2.1432,-2.1448,-2.1443,-2.1477,-2.1482,-2.1484,-2.1466,-2.1465,-2.1464,-2.146,-2.1459,0,0,0,0,0,-2.1198,-2.1217,-2.1252,-2.1267,-2.1279,-2.1307,-2.132,-2.1336,-2.1361,-2.1371,-2.1394,-2.1417,-2.1439,-2.1453,-2.1474,-2.1494,-2.1503,-2.1502,-2.1501,-2.15,-2.1501,-2.1516,-2.1516,-2.1512,-2.1512,-2.1512,0,0,-2.119,-2.1216,-2.1226,-2.1262,-2.1282,-2.1302,-2.1315,-2.1335,-2.1351,-2.1373,-2.1397,-2.1415,-2.1443,-2.1465,-2.1476,-2.148,-2.1505,-2.1501,-2.15,-2.1502,-2.1516,-2.1516,-2.1517,-2.1512,-2.1512,-2.1512,0,0,-2.1188,-2.1208,-2.1224,-2.1244,-2.1275,-2.1294,-2.1298,-2.1332,-2.1345,-2.137,-2.1388,-2.1407,-2.1443,-2.1463,-2.1478,-2.1486,-2.1498,-2.1492,-2.1488,-2.1501,-2.1502,-2.1502,-2.1506,-2.1507,-2.1493,-2.1493,-2.1493,0,-2.1174,-2.1205,-2.123,-2.125,-2.1266,-2.1289,-2.1306,-2.1324,-2.136,-2.1371,-2.1374,-2.1423,-2.1443,-2.1471,-2.1473,-2.1484,-2.149,-2.1488,-2.1499,-2.15,-2.1501,-2.1506,-2.1507,-2.1492,-2.1492,-2.1492,-2.1492,0,-2.1189,-2.121,-2.1219,-2.1255,-2.1272,-2.129,-2.1318,-2.1333,-2.1347,-2.1367,-2.1393,-2.1418,-2.1447,-2.1454,-2.1468,-2.1486,-2.1487,-2.1494,-2.15,-2.15,-2.1505,-2.1507,-2.1491,-2.1491,-2.1491,-2.1492,0,0,-2.1169,-2.122,-2.1223,-2.1241,-2.1277,-2.1294,-2.1314,-2.1343,-2.1356,-2.138,-2.1398,-2.143,-2.1438,-2.1455,-2.1471,-2.1483,-2.149,-2.1489,-2.149,-2.149,-2.1513,-2.1508,-2.1509,-2.1498,-2.1499,-2.1499,-2.1511,0,-2.1173,-2.121,-2.1234,-2.1262,-2.1283,-2.1306,-2.1324,-2.1348,-2.1367,-2.1388,-2.1409,-2.1432,-2.144,-2.1451,-2.1463,-2.1486,-2.1495,-2.1485,-2.1516,-2.1517,-2.151,-2.1511,-2.1506,-2.1515,-2.1513,-2.1513,-2.1513,0,-2.1181,-2.1207,-2.1237,-2.1274,-2.1283,-2.1299,-2.1329,-2.1348,-2.1377,-2.139,-2.141,-2.1428,-2.145,-2.1454,-2.1487,-2.148,-2.1494,-2.1507,-2.1508,-2.1512,-2.1516,-2.1517,-2.1519,-2.1521,-2.1516,-2.1516,-2.1516,0,-2.1166,-2.1208,-2.1232,-2.1246,-2.1289,-2.1299,-2.1318,-2.1347,-2.1363,-2.1389,-2.1401,-2.1428,-2.1444,-2.1465,-2.149,-2.149,-2.1521,-2.1525,-2.1533,-2.1533,-2.1539,-2.1538,-2.1544,-2.1546,-2.1546,-2.1546,-2.1546,0,-2.1168,-2.1186,-2.1226,-2.1241,-2.1263,-2.129,-2.1311,-2.1331,-2.1357,-2.1377,-2.1398,-2.1416,-2.1447,-2.147,-2.1489,-2.1514,-2.152,-2.1532,-2.1538,-2.1531,-2.153,-2.1541,-2.1542,-2.1546,-2.1546,-2.1546,-2.1546,0,-2.1154,-2.1182,-2.121,-2.1249,-2.126,-2.1274,-2.1308,-2.1323,-2.1345,-2.137,-2.1377,-2.141,-2.1437,-2.1464,-2.15,-2.1514,-2.1539,-2.1545,-2.153,-2.1533,-2.154,-2.1539,-2.1554,-2.1558,-2.1555,-2.1555,-2.1555,0,-2.1154,-2.1169,-2.121,-2.1226,-2.1244,-2.1268,-2.1286,-2.1314,-2.1332,-2.1368,-2.1379,-2.1409,-2.1434,-2.1477,-2.1504,-2.1533,-2.154,-2.1544,-2.1545,-2.1539,-2.1542,-2.1542,-2.1544,-2.1543,-2.1543,-2.1543,-2.1543,0,-2.1152,-2.1165,-2.119,-2.1221,-2.1242,-2.1267,-2.1293,-2.1304,-2.1338,-2.1357,-2.1386,-2.1405,-2.1444,-2.1473,-2.1505,-2.1524,-2.154,-2.1542,-2.1546,-2.154,-2.1531,-2.1538,-2.1529,-2.1542,-2.1542,-2.1542,-2.1542,-2.1542,-2.1146,-2.1161,-2.1194,-2.1222,-2.1244,-2.1269,-2.1286,-2.1311,-2.1336,-2.137,-2.1385,-2.1415,-2.1445,-2.149,-2.151,-2.1534,-2.1537,-2.1542,-2.1543,-2.1544,-2.1544,-2.1527,-2.1539,-2.1539,-2.1539,-2.1539,-2.1539,0,-2.1146,-2.1169,-2.1194,-2.1231,-2.1253,-2.1266,-2.1296,-2.1314,-2.134,-2.1368,-2.1393,-2.1428,-2.1457,-2.1487,-2.1518,-2.1532,-2.154,-2.1539,-2.1539,-2.1543,-2.1538,-2.1532,-2.1532,-2.1532,-2.1532,-2.1532,-2.1532,-2.1532,-2.1149,-2.1176,-2.1194,-2.1233,-2.1256,-2.1286,-2.1302,-2.1325,-2.1348,-2.1386,-2.1411,-2.1431,-2.146,-2.1494,-2.1521,-2.153,-2.1541,-2.1539,-2.1549,-2.1543,-2.1543,-2.1544,-2.1539,-2.154,-2.154,-2.1553,-2.1553,-2.1553]}]]